User: anonymous   Login
Location: Borea
(45.6167°N, 23.0167°E)
Time: 21:51:57
(UTC+00:00)
Language:

ONEWEB-0679 - Orbit

View from above orbital plane
View from above orbital plane
View from above satellite
View from above satellite

Ground track
Ground track

The orbit data is extracted from the following two-line orbital elements,

1 56715U 23068F   24057.43564094  .00000023  00000-0  26693-4 0  9991
2 56715  87.9069  36.3120 0001894 109.4658 250.6677 13.16584159 41668
Epoch (UTC): 26 February 2024 10:27:19
Eccentricity: 0.0001894
inclination: 87.9069°
perigee height: 1196 km
apogee height: 1199 km
right ascension of ascending node: 36.3120°
argument of perigee: 109.4658°
revolutions per day: 13.16584159
mean anomaly at epoch: 250.6677°
orbit number at epoch: 4166

The dashed part of the orbit path shows where the satellite is in the earth's shadow,  

DLR